Weather History for Cape Girardeau, MO

Change the Weather History Date:

Tuesday, November 27, 2012

  Actual Average Record
Temperature  
Mean Temperature 33 °F 42 °F  
Max Temperature 42 °F 51 °F 75 °F (1990)
Min Temperature 23 °F 32 °F 19 °F (2013)
Degree Days  
Heating Degree Days 32 23  
Month to date heating degree days 523 476  
Since 1 July heating degree days 868 779  
Cooling Degree Days 0 0  
Month to date cooling degree days 0 0  
Year to date cooling degree days 1784 1451  
Moisture  
Dew Point 25 °F    
Average Humidity 73    
Maximum Humidity 92    
Minimum Humidity 53    
Precipitation  
Precipitation 0.00 in 0.15 in 1.55 in (1985)
Month to date precipitation 1.32 3.96  
Year to date precipitation 25.28 42.08  
Sea Level Pressure  
Sea Level Pressure 30.38 in    
Wind  
Wind Speed 7 mph (North)    
Max Wind Speed 18 mph    
Max Gust Speed 24 mph    
Visibility 10 miles    
Events      
T = Trace of Precipitation, MM = Missing Value Source: NWS Daily Summary

Daily Weather History Graph

Daily Weather History Graph

Search for Another Location

Airport:

Trip Planner

Search our weather history database for the weather conditions in past years. The results will help you decide how hot, cold, wet, or windy it might be!

Date:

Astronomy

Nov. 27, 2012 Rise Set
Actual Time 6:50 AM CST 4:41 PM CST
Civil Twilight 6:21 AM CST 5:10 PM CST
Nautical Twilight 5:49 AM CST 5:42 PM CST
Astronomical Twilight 5:18 AM CST 6:13 PM CST
Moon 4:13 PM CST (11/27) 5:55 AM CST (11/27)
Length of Visible Light 10h 48m
Length of Day
9h 51m
Waxing Gibbous, 99% of the Moon is Illuminated
Nov 27
Waxing Gibbous
Nov 28
Full
Dec 6
Last Quarter
Dec 13
New
Dec 19
First Quarter

Hourly Weather History & Observations

Time (CST) Temp. Windchill Dew Point Humidity Pressure Visibility Wind Dir Wind Speed Gust Speed Precip Events Conditions
12:53 AM 34.0 °F 25.0 °F 27.0 °F 75% 30.33 in 10.0 mi North 12.7 mph 21.9 mph N/A   Clear
1:53 AM 33.1 °F 24.4 °F 27.0 °F 78% 30.35 in 10.0 mi North 11.5 mph - N/A   Clear
2:53 AM 32.0 °F 22.1 °F 26.1 °F 79% 30.34 in 10.0 mi North 13.8 mph - N/A   Clear
3:53 AM 30.0 °F 21.7 °F 24.1 °F 79% 30.35 in 10.0 mi North 9.2 mph - N/A   Clear
4:53 AM 28.9 °F 21.1 °F 23.0 °F 78% 30.35 in 10.0 mi North 8.1 mph - N/A   Clear
5:53 AM 28.0 °F 20.8 °F 21.9 °F 78% 30.38 in 10.0 mi North 6.9 mph - N/A   Clear
6:53 AM 28.0 °F 19.3 °F 21.0 °F 75% 30.40 in 10.0 mi North 9.2 mph - N/A   Clear
7:53 AM 28.9 °F 20.4 °F 21.0 °F 72% 30.42 in 10.0 mi North 9.2 mph - N/A   Clear
8:53 AM 32.0 °F 23.0 °F 23.0 °F 69% 30.42 in 10.0 mi North 11.5 mph - N/A   Clear
9:53 AM 35.1 °F 26.9 °F 25.0 °F 67% 30.43 in 10.0 mi North 11.5 mph - N/A   Clear
10:53 AM 37.9 °F 32.1 °F 26.1 °F 62% 30.43 in 10.0 mi North 8.1 mph - N/A   Clear
11:53 AM 39.9 °F 32.9 °F 27.0 °F 60% 30.41 in 10.0 mi North 11.5 mph - N/A   Clear
12:53 PM 41.0 °F 35.8 °F 27.0 °F 57% 30.39 in 10.0 mi North 8.1 mph - N/A   Clear
1:53 PM 42.1 °F 36.6 °F 27.0 °F 55% 30.36 in 10.0 mi NNW 9.2 mph - N/A   Clear
2:53 PM 42.1 °F 40.2 °F 26.1 °F 53% 30.35 in 10.0 mi North 3.5 mph - N/A   Clear
3:53 PM 41.0 °F 38.0 °F 26.1 °F 55% 30.36 in 10.0 mi WNW 4.6 mph - N/A   Clear
4:53 PM 35.1 °F 32.2 °F 27.0 °F 72% 30.37 in 10.0 mi NW 3.5 mph - N/A   Clear
5:53 PM 33.1 °F - 27.0 °F 78% 30.37 in 10.0 mi Calm Calm - N/A   Clear
6:53 PM 28.9 °F - 25.0 °F 85% 30.37 in 9.0 mi Calm Calm - N/A   Clear
7:53 PM 28.9 °F 23.9 °F 26.1 °F 89% 30.37 in 10.0 mi ESE 4.6 mph - N/A   Clear
8:53 PM 27.0 °F - 23.0 °F 85% 30.38 in 8.0 mi Calm Calm - N/A   Clear
9:53 PM 28.0 °F - 24.1 °F 85% 30.38 in 8.0 mi Calm Calm - N/A   Clear
10:53 PM 27.0 °F - 23.0 °F 85% 30.38 in 8.0 mi Calm Calm - N/A   Clear
11:53 PM 23.0 °F - 21.0 °F 92% 30.40 in 5.0 mi Calm Calm - N/A   Clear